Location: Shepherdstown, WV
(39.4326°N, 77.8042°W)
Time: 19:48:28
(UTC-04:00)

Vanguard 1 Rocket - Pass Details

Date: 08 August 2021
Orbit: 650 x 4226 km, 34.3° (Epoch: 19 September)

Event Time Altitude Azimuth Distance (km) Brightness Sun altitude
Rises 06:00:18 0° 198° (SSW) 7,905 11.8 -3.9°
Reaches altitude 10° 06:06:53 10° 187° (S) 7,193 11.7 -2.8°
Maximum altitude 06:26:33 29° 138° (SE) 5,830 11.8 0.8°
Drops below altitude 10° 06:43:49 10° 88° (E) 6,438 13.6 3.9°
Sets 06:49:02 0° 78° (ENE) 7,012 14.7 4.9°
